Flag for Equatorial Guinea Weather past 2 weeks in Ebebiyín, Equatorial Guinea

68 °F

Passing clouds.

Feels Like: 68 °F
Forecast: 70 / 80 °F
Wind: No wind

Location: Yaounde Airport

Current Time: Oct 4, 2015 at 5:09:36 AM

Latest Report: Oct 4, 2015 at 4:00 AM

Visibility: 5 mi

Pressure: 30.04 "Hg (28.13 "Hg at 564m altitude)

Humidity: 100%

Dew point: 68 °F

Location of EbebiyínLocation

Historic Weather in Ebebiyín — Graph


Ebebiyín temperature yesterday

Maximum temperature yesterday: 84 °F (at 11:00 AM)
Minimum temperature yesterday: 68 °F (at 12:00 AM)
Average temperature yesterday: 74 °F

Past Weeks' High & Low Weather Summary

High86 °F (Sep 23, 3:00 PM)100% (Sep 21, 12:00 AM)30.18 "Hg (Sep 21, 12:00 AM)
Low66 °F (Sep 26, 12:00 AM)55% (Sep 23, 4:00 PM)29.86 "Hg (Oct 2, 4:00 PM)
Average74 °F85%30.02 "Hg
* Reported Sep 19 4:00 AM — Oct 4 4:00 AM, Ebebiyín, Weather by CustomWeather, © 2015

Note: Actual official high and low records may vary slightly from our data, if they occured in-between our weather recording intervals... More about our weather records


Ebebiyín weather history for previous 24 hours

Time TempWeatherWind HumidityBarometerVisibility
4:00 AM
Sun, Oct 4
68 °FPassing clouds.No wind100%30.04 "Hg5 mi
3:00 AM68 °FThunderstorms. Passing clouds.No wind94%30.01 "Hg5 mi
2:00 AM68 °FThunderstorms. Passing clouds.2 mph100%30.04 "Hg4 mi
1:00 AM70 °FThunderstorms. Passing clouds.10 mph94%30.04 "Hg4 mi
12:00 AM72 °FThunderstorms. Passing clouds.7 mph94%30.07 "Hg4 mi
11:00 PM
Sat, Oct 3
72 °FThunderstorms. Passing clouds.3 mph94%30.07 "HgN/A
10:00 PM72 °FThunderstorms. Passing clouds.5 mph94%30.07 "HgN/A
9:00 PM72 °FThunderstorms. Passing clouds.7 mph94%30.04 "HgN/A
8:00 PM73 °FThunderstorms. Passing clouds.5 mph89%30.04 "HgN/A
7:00 PM73 °FThunderstorms. Passing clouds.6 mph89%30.01 "HgN/A
6:00 PM75 °FPartly sunny.5 mph83%29.98 "HgN/A
5:00 PM79 °FPartly sunny.5 mph70%29.95 "HgN/A
4:00 PM79 °FPartly sunny.7 mph74%29.92 "HgN/A
3:00 PM79 °FThunderstorms. Partly sunny.8 mph74%29.95 "HgN/A
2:00 PM79 °FThunderstorms. Partly sunny.10 mph74%29.98 "HgN/A
1:00 PM84 °FPartly sunny.2 mph62%30.01 "HgN/A
12:00 PM82 °FPartly sunny.3 mph62%30.04 "HgN/A
11:00 AM84 °FPartly sunny.2 mph62%30.07 "HgN/A
10:00 AM79 °FPartly sunny.5 mph74%30.07 "HgN/A
9:00 AM75 °FPartly sunny.2 mph83%30.07 "HgN/A
7:10 AM70 °FPartly sunny.No wind94%30.01 "HgN/A
6:00 AM68 °FBroken clouds.No wind100%30.01 "HgN/A
5:00 AM68 °FPassing clouds.No wind100%30.01 "HgN/A
Weather by CustomWeather, © 2015

See weather overviewHow to use our weather pages